Location: Cisewo
(53.3833°N, 14.9000°E)
Time: 12:01:38
(UTC+00:00)

Cosmos 1553 Rocket - Pass Details

Date: 18 April 2021
Orbit: 942 x 1007 km, 82.9° (Epoch: 14 May)

Event Time Altitude Azimuth Distance (km) Brightness Sun altitude
Exits shadow 20:54:31 35° 127° (SE) 1,492 4.5 -20.2°
Maximum altitude 20:56:13 42° 89° (E) 1,318 4.4 -20.3°
Drops below altitude 10° 21:01:54 10° 21° (NNE) 2,683 6.8 -20.8°
Sets 21:04:32 0° 15° (NNE) 3,639 7.7 -21.0°
